,,Stat6,,Stat2,,Stat8,,Stat9,,Stat10,,Wind1,,Wind1,
time,status,PA1M_AVG,status,PR1M_SUM,status,RH1M_AVG,status,SR1M_AVG,status,TA1M_AVG,status,W1dAve1m,status,W1sAve1m,
2008-09-15, 00:00:00,VALID,919.621,VALID,0,VALID,100,VALID,-0.0339617,VALID,19.5209,VALID,56,VALID,0,
2008-09-15, 00:01:00,VALID,919.618,VALID,0,VALID,100,VALID,-0.0169808,VALID,19.4817,VALID,42,VALID,0.462565,
2008-09-15, 00:02:00,VALID,919.602,VALID,0,VALID,100,VALID,0,VALID,19.4817,VALID,42,VALID,0.0236328,
2008-09-15, 00:03:00,VALID,919.584,VALID,0,VALID,100,VALID,-0.0679233,VALID,19.4849,VALID,42,VALID,0,
2008-09-15, 00:04:00,VALID,919.566,VALID,0,VALID,100,VALID,-0.0169808,VALID,19.4879,VALID,42,VALID,0,
2008-09-15, 00:05:00,VALID,919.542,VALID,0,VALID,100,VALID,-0.0339617,VALID,19.4849,VALID,42,VALID,0.0665923,
2008-09-15, 00:06:00,VALID,919.527,VALID,0,VALID,100,VALID,-0.0169808,VALID,19.4754,VALID,36,VALID,0.00962936,
2008-09-15, 00:07:00,VALID,919.517,VALID,0,VALID,100,VALID,-0.0169808,VALID,19.4849,VALID,34,VALID,0,
2008-09-15, 00:08:00,VALID,919.49,VALID,0,VALID,100,VALID,0,VALID,19.5076,VALID,32,VALID,0,
2008-09-15, 00:09:00,VALID,919.489,VALID,0,VALID,100,VALID,-0.0169808,VALID,19.5206,VALID,28,VALID,0,
2008-09-15, 00:10:00,VALID,919.479,VALID,0,VALID,100,VALID,-0.0339617,VALID,19.5468,VALID,28,VALID,0,
2008-09-15, 00:11:00,VALID,919.458,VALID,0,VALID,100,VALID,-0.0169808,VALID,19.5595,VALID,7,VALID,0,
2008-09-15, 00:12:00,VALID,919.428,VALID,0,VALID,100,VALID,-0.0169808,VALID,19.5695,VALID,5,VALID,0,
2008-09-15, 00:13:00,VALID,919.406,VALID,0,VALID,100,VALID,-0.0509425,VALID,19.5755,VALID,5,VALID,0,
2008-09-15, 00:14:00,VALID,919.388,VALID,0,VALID,100,VALID,-0.0339617,VALID,19.5955,VALID,5,VALID,0,
2008-09-15, 00:15:00,VALID,919.365,VALID,0,VALID,100,VALID,0,VALID,19.6017,VALID,5,VALID,0,
2008-09-15, 00:16:00,VALID,919.366,VALID,0,VALID,100,VALID,0,VALID,19.6212,VALID,5,VALID,0,
2008-09-15, 00:17:00,VALID,919.362,VALID,0,VALID,100,VALID,0,VALID,19.6242,VALID,5,VALID,0,
2008-09-15, 00:18:00,VALID,919.358,VALID,0,VALID,100,VALID,-0.0849042,VALID,19.6382,VALID,5,VALID,0,
2008-09-15, 00:19:00,VALID,919.353,VALID,0,VALID,100,VALID,-0.101885,VALID,19.6516,VALID,5,VALID,0,
2008-09-15, 00:20:00,VALID,919.357,VALID,0,VALID,100,VALID,-0.0849042,VALID,19.6516,VALID,5,VALID,0,
2008-09-15, 00:21:00,VALID,919.341,VALID,0,VALID,100,VALID,-0.101885,VALID,19.6489,VALID,5,VALID,0,
2008-09-15, 00:22:00,VALID,919.33,VALID,0,VALID,100,VALID,-0.118866,VALID,19.6554,VALID,5,VALID,0,
2008-09-15, 00:23:00,VALID,919.32,VALID,0,VALID,100,VALID,-0.118866,VALID,19.6516,VALID,5,VALID,0,
2008-09-15, 00:24:00,VALID,919.304,VALID,0,VALID,100,VALID,-0.118866,VALID,19.6424,VALID,5,VALID,0,
2008-09-15, 00:25:00,VALID,919.294,VALID,0,VALID,100,VALID,-0.118866,VALID,19.6129,VALID,5,VALID,0,
2008-09-15, 00:26:00,VALID,919.277,VALID,0,VALID,100,VALID,-0.101885,VALID,19.583,VALID,15,VALID,0.195713,
2008-09-15, 00:27:00,VALID,919.244,VALID,0,VALID,100,VALID,-0.118866,VALID,19.551,VALID,14,VALID,0.837054,
2008-09-15, 00:28:00,VALID,919.228,VALID,0,VALID,100,VALID,-0.169808,VALID,19.5351,VALID,15,VALID,0.852095,
2008-09-15, 00:29:00,VALID,919.198,VALID,0,VALID,100,VALID,-0.135847,VALID,19.5218,VALID,12,VALID,0.173921,
2008-09-15, 00:30:00,VALID,919.163,VALID,0,VALID,100,VALID,-0.101885,VALID,19.5091,VALID,11,VALID,0,
2008-09-15, 00:31:00,VALID,919.156,VALID,0,VALID,100,VALID,-0.118866,VALID,19.4991,VALID,353,VALID,0,
2008-09-15, 00:32:00,VALID,919.141,VALID,0,VALID,100,VALID,-0.152827,VALID,19.4994,VALID,344,VALID,0,
2008-09-15, 00:33:00,VALID,919.133,VALID,0,VALID,100,VALID,0,VALID,19.4879,VALID,327,VALID,0,
2008-09-15, 00:34:00,VALID,919.113,VALID,0,VALID,100,VALID,-0.0679233,VALID,19.4852,VALID,327,VALID,0,
2008-09-15, 00:35:00,VALID,919.104,VALID,0,VALID,100,VALID,0,VALID,19.4817,VALID,327,VALID,0,
2008-09-15, 00:36:00,VALID,919.094,VALID,0,VALID,100,VALID,-0.0169808,VALID,19.4784,VALID,327,VALID,0,
2008-09-15, 00:37:00,VALID,919.088,VALID,0,VALID,100,VALID,-0.0169808,VALID,19.4552,VALID,327,VALID,0,
2008-09-15, 00:38:00,VALID,919.095,VALID,0,VALID,100,VALID,-0.0169808,VALID,19.4587,VALID,327,VALID,0,
2008-09-15, 00:39:00,VALID,919.099,VALID,0,VALID,100,VALID,-0.0509425,VALID,19.4719,VALID,327,VALID,0,
2008-09-15, 00:40:00,VALID,919.107,VALID,0,VALID,100,VALID,-0.0509425,VALID,19.5046,VALID,327,VALID,0,
2008-09-15, 00:41:00,VALID,919.129,VALID,0,VALID,100,VALID,-0.0169808,VALID,19.5009,VALID,327,VALID,0,
2008-09-15, 00:42:00,VALID,919.13,VALID,0,VALID,100,VALID,-0.0679233,VALID,19.4977,VALID,327,VALID,0,
2008-09-15, 00:43:00,VALID,919.133,VALID,0,VALID,100,VALID,-0.0169808,VALID,19.5011,VALID,327,VALID,0,
2008-09-15, 00:44:00,VALID,919.138,VALID,0,VALID,100,VALID,-0.0339617,VALID,19.4947,VALID,327,VALID,0,
2008-09-15, 00:45:00,VALID,919.129,VALID,0,VALID,100,VALID,-0.0509425,VALID,19.5209,VALID,327,VALID,0,
2008-09-15, 00:46:00,VALID,919.125,VALID,0,VALID,100,VALID,-0.0339617,VALID,19.5336,VALID,327,VALID,0,
2008-09-15, 00:47:00,VALID,919.113,VALID,0,VALID,100,VALID,0,VALID,19.5433,VALID,327,VALID,0,
2008-09-15, 00:48:00,VALID,919.09,VALID,0,VALID,100,VALID,-0.101885,VALID,19.5478,VALID,334,VALID,0,
2008-09-15, 00:49:00,VALID,919.077,VALID,0,VALID,100,VALID,-0.118866,VALID,19.5451,VALID,11,VALID,0.292151,
2008-09-15, 00:50:00,VALID,919.057,VALID,0,VALID,100,VALID,-0.118866,VALID,19.5351,VALID,13,VALID,0,
2008-09-15, 00:51:00,VALID,919.042,VALID,0,VALID,100,VALID,-0.169808,VALID,19.5418,VALID,13,VALID,0,
2008-09-15, 00:52:00,VALID,919.031,VALID,0,VALID,100,VALID,-0.135847,VALID,19.5515,VALID,6,VALID,0,
2008-09-15, 00:53:00,VALID,919.021,VALID,0,VALID,100,VALID,-0.135847,VALID,19.5348,VALID,351,VALID,0,
2008-09-15, 00:54:00,VALID,919.025,VALID,0,VALID,100,VALID,-0.135847,VALID,19.5318,VALID,348,VALID,0,
2008-09-15, 00:55:00,VALID,919.012,VALID,0,VALID,100,VALID,-0.169808,VALID,19.5418,VALID,348,VALID,0,
2008-09-15, 00:56:00,VALID,918.983,VALID,0,VALID,100,VALID,-0.118866,VALID,19.5483,VALID,348,VALID,0,
2008-09-15, 00:57:00,VALID,918.966,VALID,0,VALID,100,VALID,-0.135847,VALID,19.564,VALID,348,VALID,0,
2008-09-15, 00:58:00,VALID,918.958,VALID,0,VALID,100,VALID,-0.169808,VALID,19.5643,VALID,348,VALID,0,
2008-09-15, 00:59:00,VALID,918.941,VALID,0,VALID,100,VALID,-0.118866,VALID,19.5708,VALID,348,VALID,0,
2008-09-15, 01:00:00,VALID,918.947,VALID,0,VALID,100,VALID,-0.101885,VALID,19.5935,VALID,348,VALID,0,
2008-09-15, 01:01:00,VALID,918.953,VALID,0,VALID,100,VALID,-0.101885,VALID,19.5768,VALID,349,VALID,0,
2008-09-15, 01:02:00,VALID,918.95,VALID,0,VALID,100,VALID,-0.101885,VALID,19.6032,VALID,358,VALID,0,
2008-09-15, 01:03:00,VALID,918.947,VALID,0.2,VALID,100,VALID,-0.0509425,VALID,19.6312,VALID,11,VALID,0,
2008-09-15, 01:04:00,VALID,918.942,VALID,0,VALID,100,VALID,0,VALID,19.6434,VALID,11,VALID,0,
2008-09-15, 01:05:00,VALID,918.95,VALID,0,VALID,100,VALID,-0.0169808,VALID,19.6659,VALID,11,VALID,0,
2008-09-15, 01:06:00,VALID,918.948,VALID,0,VALID,100,VALID,-0.0339617,VALID,19.6793,VALID,11,VALID,0,
2008-09-15, 01:07:00,VALID,918.943,VALID,0,VALID,100,VALID,0,VALID,19.6891,VALID,11,VALID,0,
2008-09-15, 01:08:00,VALID,918.948,VALID,0,VALID,100,VALID,-0.0169808,VALID,19.6823,VALID,11,VALID,0,
2008-09-15, 01:09:00,VALID,918.95,VALID,0.2,VALID,100,VALID,-0.0169808,VALID,19.6828,VALID,11,VALID,0,
2008-09-15, 01:10:00,VALID,918.944,VALID,0,VALID,100,VALID,-0.0339617,VALID,19.6604,VALID,11,VALID,0,
2008-09-15, 01:11:00,VALID,918.924,VALID,0,VALID,100,VALID,0,VALID,19.6372,VALID,11,VALID,0,
2008-09-15, 01:12:00,VALID,918.918,VALID,0,VALID,100,VALID,-0.0169808,VALID,19.6239,VALID,11,VALID,0,
2008-09-15, 01:13:00,VALID,918.895,VALID,0,VALID,100,VALID,0,VALID,19.6269,VALID,11,VALID,0,
2008-09-15, 01:14:00,VALID,918.87,VALID,0,VALID,100,VALID,0,VALID,19.6372,VALID,11,VALID,0,
2008-09-15, 01:15:00,VALID,918.871,VALID,0,VALID,100,VALID,-0.0169808,VALID,19.6439,VALID,324,VALID,0,
2008-09-15, 01:16:00,VALID,918.863,VALID,0,VALID,100,VALID,-0.0679233,VALID,19.6115,VALID,250,VALID,0,
2008-09-15, 01:17:00,VALID,918.845,VALID,0,VALID,100,VALID,-0.0509425,VALID,19.5955,VALID,242,VALID,0.0601918,
2008-09-15, 01:18:00,VALID,918.834,VALID,0,VALID,100,VALID,-0.0339617,VALID,19.5595,VALID,256,VALID,0.000355114,
2008-09-15, 01:19:00,VALID,918.824,VALID,0,VALID,100,VALID,-0.0169808,VALID,19.5301,VALID,257,VALID,0.0332485,
2008-09-15, 01:20:00,VALID,918.82,VALID,0,VALID,100,VALID,-0.0339617,VALID,19.5109,VALID,231,VALID,0,
2008-09-15, 01:21:00,VALID,918.818,VALID,0,VALID,100,VALID,-0.0169808,VALID,19.5011,VALID,265,VALID,0.0012429,
2008-09-15, 01:22:00,VALID,918.83,VALID,0,VALID,100,VALID,0,VALID,19.5139,VALID,248,VALID,0,
2008-09-15, 01:23:00,VALID,918.837,VALID,0,VALID,100,VALID,-0.0339617,VALID,19.5176,VALID,265,VALID,0.253089,
2008-09-15, 01:24:00,VALID,918.838,VALID,0,VALID,100,VALID,-0.0849042,VALID,19.4981,VALID,255,VALID,0.0421875,
2008-09-15, 01:25:00,VALID,918.838,VALID,0,VALID,100,VALID,-0.0339617,VALID,19.5011,VALID,231,VALID,0,
2008-09-15, 01:26:00,VALID,918.831,VALID,0,VALID,100,VALID,-0.0679233,VALID,19.4979,VALID,223,VALID,0,
2008-09-15, 01:27:00,VALID,918.838,VALID,0,VALID,100,VALID,-0.0339617,VALID,19.4914,VALID,226,VALID,0,
2008-09-15, 01:28:00,VALID,918.83,VALID,0,VALID,100,VALID,-0.0509425,VALID,19.4917,VALID,226,VALID,0,
2008-09-15, 01:29:00,VALID,918.828,VALID,0,VALID,100,VALID,-0.0509425,VALID,19.5014,VALID,223,VALID,0,
2008-09-15, 01:30:00,VALID,918.843,VALID,0,VALID,100,VALID,-0.0339617,VALID,19.5109,VALID,185,VALID,0,
2008-09-15, 01:31:00,VALID,918.83,VALID,0,VALID,100,VALID,-0.0339617,VALID,19.5046,VALID,185,VALID,0,
2008-09-15, 01:32:00,VALID,918.817,VALID,0,VALID,100,VALID,-0.0169808,VALID,19.5046,VALID,185,VALID,0,
2008-09-15, 01:33:00,VALID,918.786,VALID,0.2,VALID,100,VALID,-0.0169808,VALID,19.5041,VALID,185,VALID,0,
2008-09-15, 01:34:00,VALID,918.775,VALID,0,VALID,100,VALID,-0.0509425,VALID,19.5079,VALID,185,VALID,0,
2008-09-15, 01:35:00,VALID,918.75,VALID,0,VALID,100,VALID,-0.0679233,VALID,19.5011,VALID,185,VALID,0,
2008-09-15, 01:36:00,VALID,918.733,VALID,0,VALID,100,VALID,-0.0509425,VALID,19.5046,VALID,173,VALID,0,
2008-09-15, 01:37:00,VALID,918.717,VALID,0,VALID,100,VALID,-0.0509425,VALID,19.4917,VALID,173,VALID,0,
2008-09-15, 01:38:00,VALID,918.716,VALID,0,VALID,100,VALID,-0.0679233,VALID,19.4917,VALID,173,VALID,0,
2008-09-15, 01:39:00,VALID,918.718,VALID,0,VALID,100,VALID,-0.0679233,VALID,19.4822,VALID,177,VALID,0,
2008-09-15, 01:40:00,VALID,918.735,VALID,0,VALID,100,VALID,-0.0849042,VALID,19.4625,VALID,177,VALID,0,
2008-09-15, 01:41:00,VALID,918.739,VALID,0,VALID,100,VALID,-0.0509425,VALID,19.4657,VALID,177,VALID,0,
2008-09-15, 01:42:00,VALID,918.75,VALID,0,VALID,100,VALID,-0.0509425,VALID,19.4787,VALID,177,VALID,0,
2008-09-15, 01:43:00,VALID,918.745,VALID,0,VALID,100,VALID,-0.101885,VALID,19.4819,VALID,177,VALID,0,
2008-09-15, 01:44:00,VALID,918.771,VALID,0,VALID,100,VALID,-0.0679233,VALID,19.4947,VALID,177,VALID,0,
2008-09-15, 01:45:00,VALID,918.781,VALID,0,VALID,100,VALID,-0.0849042,VALID,19.5079,VALID,177,VALID,0,
2008-09-15, 01:46:00,VALID,918.797,VALID,0.2,VALID,100,VALID,-0.0679233,VALID,19.5146,VALID,177,VALID,0,
2008-09-15, 01:47:00,VALID,918.812,VALID,0.2,VALID,100,VALID,-0.0339617,VALID,19.5009,VALID,226,VALID,0,
2008-09-15, 01:48:00,VALID,918.824,VALID,0.2,VALID,100,VALID,-0.0169808,VALID,19.4949,VALID,256,VALID,0,
2008-09-15, 01:49:00,VALID,918.843,VALID,0.4,VALID,100,VALID,-0.0509425,VALID,19.4817,VALID,215,VALID,0,
2008-09-15, 01:50:00,VALID,918.855,VALID,0.4,VALID,100,VALID,-0.0339617,VALID,19.4717,VALID,198,VALID,0,
2008-09-15, 01:51:00,VALID,918.865,VALID,0.4,VALID,100,VALID,-0.0849042,VALID,19.4655,VALID,198,VALID,0,
2008-09-15, 01:52:00,VALID,918.864,VALID,0.4,VALID,100,VALID,-0.0679233,VALID,19.4817,VALID,201,VALID,0,
2008-09-15, 01:53:00,VALID,918.881,VALID,0.6,VALID,100,VALID,-0.0169808,VALID,19.4752,VALID,259,VALID,0,
2008-09-15, 01:54:00,VALID,918.899,VALID,1,VALID,100,VALID,-0.0339617,VALID,19.462,VALID,241,VALID,0.152058,
2008-09-15, 01:55:00,VALID,918.879,VALID,1.2,VALID,100,VALID,-0.0339617,VALID,19.4198,VALID,210,VALID,0,
2008-09-15, 01:56:00,VALID,918.856,VALID,0.6,VALID,100,VALID,0,VALID,19.3908,VALID,261,VALID,0.357329,
2008-09-15, 01:57:00,VALID,918.84,VALID,0.4,VALID,100,VALID,0,VALID,19.3287,VALID,222,VALID,0.277876,
2008-09-15, 01:58:00,VALID,918.802,VALID,0.4,VALID,100,VALID,-0.0169808,VALID,19.2768,VALID,220,VALID,0.808061,
2008-09-15, 01:59:00,VALID,918.809,VALID,0.4,VALID,100,VALID,-0.0509425,VALID,19.2354,VALID,341,VALID,0.231641,
2008-09-15, 02:00:00,VALID,918.813,VALID,0.4,VALID,100,VALID,-0.0509425,VALID,19.2221,VALID,24,VALID,0.458147,
2008-09-15, 02:01:00,VALID,918.79,VALID,0.6,VALID,100,VALID,-0.0339617,VALID,19.2184,VALID,20,VALID,0.95293,
2008-09-15, 02:02:00,VALID,918.774,VALID,0.6,VALID,100,VALID,0,VALID,19.2089,VALID,25,VALID,2.28733,
2008-09-15, 02:03:00,VALID,918.787,VALID,0.4,VALID,100,VALID,-0.0509425,VALID,19.2094,VALID,32,VALID,2.31032,
2008-09-15, 02:04:00,VALID,918.788,VALID,0.8,VALID,100,VALID,0,VALID,19.2059,VALID,30,VALID,2.21548,
2008-09-15, 02:05:00,VALID,918.779,VALID,0.6,VALID,100,VALID,0,VALID,19.2024,VALID,47,VALID,1.0638,
2008-09-15, 02:06:00,VALID,918.758,VALID,0.6,VALID,100,VALID,0,VALID,19.1989,VALID,39,VALID,1.21893,
2008-09-15, 02:07:00,VALID,918.769,VALID,0.6,VALID,100,VALID,0,VALID,19.2059,VALID,37,VALID,1.23456,
2008-09-15, 02:08:00,VALID,918.765,VALID,0.6,VALID,100,VALID,-0.0169808,VALID,19.1795,VALID,293,VALID,0.34375,
2008-09-15, 02:09:00,VALID,918.731,VALID,0.6,VALID,100,VALID,-0.0339617,VALID,19.1343,VALID,273,VALID,0,
2008-09-15, 02:10:00,VALID,918.713,VALID,0.4,VALID,100,VALID,-0.0679233,VALID,19.1151,VALID,273,VALID,0,
2008-09-15, 02:11:00,VALID,918.711,VALID,0.2,VALID,100,VALID,-0.0849042,VALID,19.0924,VALID,273,VALID,0,
2008-09-15, 02:12:00,VALID,918.717,VALID,0.2,VALID,100,VALID,-0.0339617,VALID,19.0859,VALID,346,VALID,0.188953,
2008-09-15, 02:13:00,VALID,918.691,VALID,0.2,VALID,100,VALID,-0.0509425,VALID,19.0759,VALID,356,VALID,0,
2008-09-15, 02:14:00,VALID,918.696,VALID,0,VALID,100,VALID,-0.0339617,VALID,19.0822,VALID,31,VALID,1.20916,
2008-09-15, 02:15:00,VALID,918.692,VALID,0.2,VALID,100,VALID,-0.0679233,VALID,19.0986,VALID,28,VALID,1.66097,
2008-09-15, 02:16:00,VALID,918.699,VALID,0.2,VALID,100,VALID,-0.0169808,VALID,19.1051,VALID,12,VALID,1.89304,
2008-09-15, 02:17:00,VALID,918.706,VALID,0,VALID,100,VALID,-0.0339617,VALID,19.0891,VALID,18,VALID,1.33327,
2008-09-15, 02:18:00,VALID,918.7,VALID,0,VALID,100,VALID,0,VALID,19.0724,VALID,30,VALID,1.51918,
2008-09-15, 02:19:00,VALID,918.705,VALID,0.2,VALID,100,VALID,-0.0169808,VALID,19.0824,VALID,20,VALID,0.734189,
2008-09-15, 02:20:00,VALID,918.709,VALID,0,VALID,100,VALID,-0.0849042,VALID,19.0824,VALID,30,VALID,1.4233,
2008-09-15, 02:21:00,VALID,918.714,VALID,0.2,VALID,100,VALID,-0.0169808,VALID,19.0694,VALID,30,VALID,0.953125,
2008-09-15, 02:22:00,VALID,918.716,VALID,0,VALID,100,VALID,-0.0169808,VALID,19.0764,VALID,35,VALID,1.09783,
2008-09-15, 02:23:00,VALID,918.705,VALID,0.2,VALID,100,VALID,-0.0679233,VALID,19.0759,VALID,27,VALID,2.09288,
2008-09-15, 02:24:00,VALID,918.732,VALID,0,VALID,100,VALID,-0.0509425,VALID,19.0597,VALID,11,VALID,0.845117,
2008-09-15, 02:25:00,VALID,918.74,VALID,0.2,VALID,100,VALID,-0.0339617,VALID,19.0305,VALID,12,VALID,0.979403,
2008-09-15, 02:26:00,VALID,918.745,VALID,0,VALID,100,VALID,-0.0679233,VALID,19.0342,VALID,29,VALID,1.25267,
2008-09-15, 02:27:00,VALID,918.736,VALID,0.2,VALID,100,VALID,0,VALID,19.0303,VALID,19,VALID,1.29208,
2008-09-15, 02:28:00,VALID,918.733,VALID,0,VALID,100,VALID,-0.0339617,VALID,18.9816,VALID,27,VALID,2.50236,
2008-09-15, 02:29:00,VALID,918.779,VALID,0.2,VALID,100,VALID,-0.0339617,VALID,18.9719,VALID,42,VALID,0.532138,
2008-09-15, 02:30:00,VALID,918.787,VALID,0,VALID,100,VALID,-0.0509425,VALID,18.9721,VALID,46,VALID,0.665698,
2008-09-15, 02:31:00,VALID,918.771,VALID,0.2,VALID,100,VALID,-0.0339617,VALID,18.9594,VALID,31,VALID,1.79062,
2008-09-15, 02:32:00,VALID,918.794,VALID,0.2,VALID,100,VALID,-0.0169808,VALID,18.9716,VALID,35,VALID,1.45666,
2008-09-15, 02:33:00,VALID,918.795,VALID,0,VALID,100,VALID,-0.0339617,VALID,18.9626,VALID,24,VALID,2.29506,
2008-09-15, 02:34:00,VALID,918.803,VALID,0.2,VALID,100,VALID,-0.0339617,VALID,18.9362,VALID,5,VALID,0.776344,
2008-09-15, 02:35:00,VALID,918.807,VALID,0,VALID,100,VALID,0,VALID,18.9297,VALID,4,VALID,1.01181,
2008-09-15, 02:36:00,VALID,918.827,VALID,0.2,VALID,100,VALID,-0.0169808,VALID,18.9364,VALID,7,VALID,0.427083,
2008-09-15, 02:37:00,VALID,918.812,VALID,0.2,VALID,100,VALID,0.0169808,VALID,18.9193,VALID,97,VALID,0.0165551,
2008-09-15, 02:38:00,VALID,918.799,VALID,0,VALID,100,VALID,-0.0169808,VALID,18.923,VALID,10,VALID,1.02289,
2008-09-15, 02:39:00,VALID,918.824,VALID,0,VALID,100,VALID,0,VALID,18.8938,VALID,26,VALID,1.83498,
2008-09-15, 02:40:00,VALID,918.812,VALID,0.2,VALID,100,VALID,0,VALID,18.8614,VALID,19,VALID,1.98971,
2008-09-15, 02:41:00,VALID,918.82,VALID,0.2,VALID,100,VALID,0,VALID,18.8481,VALID,45,VALID,1.39551,
2008-09-15, 02:42:00,VALID,918.831,VALID,0,VALID,100,VALID,0,VALID,18.8581,VALID,29,VALID,1.6597,
2008-09-15, 02:43:00,VALID,918.823,VALID,0.2,VALID,100,VALID,-0.0169808,VALID,18.8614,VALID,26,VALID,1.33757,
2008-09-15, 02:44:00,VALID,918.812,VALID,0.2,VALID,100,VALID,0,VALID,18.8449,VALID,30,VALID,1.377,
2008-09-15, 02:45:00,VALID,918.801,VALID,0,VALID,100,VALID,0,VALID,18.8254,VALID,30,VALID,1.90234,
2008-09-15, 02:46:00,VALID,918.783,VALID,0.2,VALID,100,VALID,0,VALID,18.8222,VALID,30,VALID,1.92188,
2008-09-15, 02:47:00,VALID,918.765,VALID,0.2,VALID,100,VALID,0,VALID,18.7798,VALID,22,VALID,2.15195,
2008-09-15, 02:48:00,VALID,918.779,VALID,0.2,VALID,100,VALID,-0.0169808,VALID,18.7409,VALID,22,VALID,1.63765,
2008-09-15, 02:49:00,VALID,918.766,VALID,0.2,VALID,100,VALID,-0.0339617,VALID,18.7286,VALID,30,VALID,2.49627,
2008-09-15, 02:50:00,VALID,918.757,VALID,0,VALID,100,VALID,-0.0169808,VALID,18.7191,VALID,29,VALID,2.12188,
2008-09-15, 02:51:00,VALID,918.731,VALID,0.2,VALID,100,VALID,-0.0169808,VALID,18.7061,VALID,22,VALID,1.99963,
2008-09-15, 02:52:00,VALID,918.731,VALID,0.2,VALID,100,VALID,0,VALID,18.676,VALID,26,VALID,2.25347,
2008-09-15, 02:53:00,VALID,918.756,VALID,0,VALID,100,VALID,-0.0169808,VALID,18.6894,VALID,23,VALID,1.72656,
2008-09-15, 02:54:00,VALID,918.759,VALID,0.2,VALID,100,VALID,0,VALID,18.6732,VALID,10,VALID,0.854725,
2008-09-15, 02:55:00,VALID,918.732,VALID,0.2,VALID,100,VALID,-0.0169808,VALID,18.6436,VALID,34,VALID,0.857777,
2008-09-15, 02:56:00,VALID,918.712,VALID,0.2,VALID,100,VALID,-0.0339617,VALID,18.6603,VALID,29,VALID,1.68674,
2008-09-15, 02:57:00,VALID,918.704,VALID,0,VALID,100,VALID,0,VALID,18.68,VALID,21,VALID,1.38789,
2008-09-15, 02:58:00,VALID,918.678,VALID,0.2,VALID,100,VALID,0,VALID,18.673,VALID,45,VALID,0.805903,
2008-09-15, 02:59:00,VALID,918.652,VALID,0.2,VALID,100,VALID,0,VALID,18.6436,VALID,44,VALID,0.665334,
2008-09-15, 03:00:00,VALID,918.652,VALID,0.2,VALID,100,VALID,0,VALID,18.6149,VALID,357,VALID,1.11358,
2008-09-15, 03:01:00,VALID,918.608,VALID,0,VALID,100,VALID,0,VALID,18.6149,VALID,2,VALID,1.36849,
2008-09-15, 03:02:00,VALID,918.606,VALID,0,VALID,100,VALID,0,VALID,18.6019,VALID,25,VALID,1.49549,
2008-09-15, 03:03:00,VALID,918.591,VALID,0.2,VALID,100,VALID,0,VALID,18.6186,VALID,31,VALID,1.2939,
2008-09-15, 03:04:00,VALID,918.58,VALID,0.2,VALID,100,VALID,-0.0339617,VALID,18.563,VALID,27,VALID,1.99774,
2008-09-15, 03:05:00,VALID,918.591,VALID,0,VALID,100,VALID,0,VALID,18.5435,VALID,26,VALID,1.75906,
2008-09-15, 03:06:00,VALID,918.593,VALID,0.2,VALID,100,VALID,0.0339617,VALID,18.5592,VALID,26,VALID,1.09428,
2008-09-15, 03:07:00,VALID,918.595,VALID,0,VALID,100,VALID,-0.0169808,VALID,18.5727,VALID,31,VALID,1.80039,
2008-09-15, 03:08:00,VALID,918.58,VALID,0.2,VALID,100,VALID,-0.0169808,VALID,18.5664,VALID,30,VALID,2.00018,
2008-09-15, 03:09:00,VALID,918.605,VALID,0,VALID,100,VALID,-0.0339617,VALID,18.534,VALID,15,VALID,1.04149,
2008-09-15, 03:10:00,VALID,918.609,VALID,0.2,VALID,100,VALID,-0.0169808,VALID,18.5138,VALID,32,VALID,1.44975,
2008-09-15, 03:11:00,VALID,918.604,VALID,0,VALID,100,VALID,0,VALID,18.4916,VALID,28,VALID,1.43694,
2008-09-15, 03:12:00,VALID,918.601,VALID,0.2,VALID,100,VALID,0,VALID,18.4881,VALID,310,VALID,0.477134,
2008-09-15, 03:13:00,VALID,918.612,VALID,0,VALID,100,VALID,0,VALID,18.4752,VALID,30,VALID,1.27859,
2008-09-15, 03:14:00,VALID,918.598,VALID,0.2,VALID,100,VALID,0,VALID,18.4717,VALID,9,VALID,0.376598,
2008-09-15, 03:15:00,VALID,918.582,VALID,0,VALID,100,VALID,0,VALID,18.4879,VALID,35,VALID,1.45065,
2008-09-15, 03:16:00,VALID,918.585,VALID,0,VALID,100,VALID,0,VALID,18.5076,VALID,353,VALID,0.887091,
2008-09-15, 03:17:00,VALID,918.573,VALID,0.2,VALID,100,VALID,-0.0169808,VALID,18.5138,VALID,18,VALID,1.27489,
2008-09-15, 03:18:00,VALID,918.569,VALID,0,VALID,100,VALID,0.0169808,VALID,18.5009,VALID,28,VALID,1.72135,
2008-09-15, 03:19:00,VALID,918.581,VALID,0.2,VALID,100,VALID,0,VALID,18.4782,VALID,26,VALID,1.29649,
2008-09-15, 03:20:00,VALID,918.571,VALID,0,VALID,100,VALID,0.0169808,VALID,18.4652,VALID,33,VALID,1.41445,
2008-09-15, 03:21:00,VALID,918.567,VALID,0,VALID,100,VALID,0.0339617,VALID,18.4325,VALID,27,VALID,1.69629,
2008-09-15, 03:22:00,VALID,918.573,VALID,0.2,VALID,100,VALID,0,VALID,18.4235,VALID,38,VALID,0.977257,
2008-09-15, 03:23:00,VALID,918.573,VALID,0,VALID,100,VALID,0,VALID,18.4298,VALID,34,VALID,1.06845,
2008-09-15, 03:24:00,VALID,918.577,VALID,0,VALID,100,VALID,0.0169808,VALID,18.439,VALID,28,VALID,0.382999,
2008-09-15, 03:25:00,VALID,918.578,VALID,0,VALID,100,VALID,0,VALID,18.4457,VALID,22,VALID,0.941592,
2008-09-15, 03:26:00,VALID,918.58,VALID,0.2,VALID,100,VALID,0.0339617,VALID,18.4165,VALID,33,VALID,1.22904,
2008-09-15, 03:27:00,VALID,918.593,VALID,0,VALID,100,VALID,0.0339617,VALID,18.426,VALID,27,VALID,1.16297,
2008-09-15, 03:28:00,VALID,918.601,VALID,0,VALID,100,VALID,0,VALID,18.4328,VALID,32,VALID,1.39137,
2008-09-15, 03:29:00,VALID,918.603,VALID,0,VALID,100,VALID,0,VALID,18.4487,VALID,31,VALID,0.728237,
2008-09-15, 03:30:00,VALID,918.615,VALID,0,VALID,100,VALID,0.0169808,VALID,18.4555,VALID,34,VALID,0.14974,
2008-09-15, 03:31:00,VALID,918.601,VALID,0,VALID,100,VALID,-0.0169808,VALID,18.4295,VALID,21,VALID,1.40848,
2008-09-15, 03:32:00,VALID,918.609,VALID,0.2,VALID,100,VALID,-0.0169808,VALID,18.3941,VALID,30,VALID,1.18426,
2008-09-15, 03:33:00,VALID,918.618,VALID,0,VALID,100,VALID,-0.0509425,VALID,18.4015,VALID,30,VALID,0.604688,
2008-09-15, 03:34:00,VALID,918.624,VALID,0,VALID,100,VALID,-0.0509425,VALID,18.4077,VALID,14,VALID,0.985305,
2008-09-15, 03:35:00,VALID,918.624,VALID,0,VALID,100,VALID,-0.0509425,VALID,18.3848,VALID,6,VALID,1.18201,
2008-09-15, 03:36:00,VALID,918.631,VALID,0,VALID,100,VALID,-0.0169808,VALID,18.3783,VALID,27,VALID,0.989984,
2008-09-15, 03:37:00,VALID,918.598,VALID,0,VALID,100,VALID,-0.0509425,VALID,18.3813,VALID,29,VALID,1.22334,
2008-09-15, 03:38:00,VALID,918.588,VALID,0.2,VALID,100,VALID,-0.0339617,VALID,18.3718,VALID,10,VALID,1.3644,
2008-09-15, 03:39:00,VALID,918.569,VALID,0,VALID,100,VALID,-0.0169808,VALID,18.3616,VALID,16,VALID,1.97093,
2008-09-15, 03:40:00,VALID,918.562,VALID,0,VALID,100,VALID,-0.0169808,VALID,18.3552,VALID,17,VALID,1.91667,
2008-09-15, 03:41:00,VALID,918.548,VALID,0,VALID,100,VALID,-0.0169808,VALID,18.3422,VALID,27,VALID,1.48331,
2008-09-15, 03:42:00,VALID,918.562,VALID,0.2,VALID,100,VALID,-0.0339617,VALID,18.3521,VALID,13,VALID,1.41875,
2008-09-15, 03:43:00,VALID,918.552,VALID,0,VALID,100,VALID,-0.0339617,VALID,18.3422,VALID,29,VALID,1.03143,
2008-09-15, 03:44:00,VALID,918.536,VALID,0,VALID,100,VALID,-0.0339617,VALID,18.3656,VALID,25,VALID,1.56632,
2008-09-15, 03:45:00,VALID,918.542,VALID,0,VALID,100,VALID,-0.0169808,VALID,18.3457,VALID,20,VALID,0.981286,
2008-09-15, 03:46:00,VALID,918.553,VALID,0.2,VALID,100,VALID,-0.0509425,VALID,18.3487,VALID,25,VALID,1.71484,